TimeCST,TemperatureF,Dew PointF,Humidity,Sea Level PressureIn,VisibilityMPH,Wind Direction,Wind SpeedMPH,Gust SpeedMPH,PrecipitationIn,Events,Conditions,WindDirDegrees,DateUTC
12:15 AM,34.0,21.6,60,30.00,10.0,NNW,6.9,-,N/A,,Clear,330,2012-12-24 06:15:00
12:35 AM,32.4,20.8,63,30.01,10.0,NW,6.9,-,N/A,,Clear,320,2012-12-24 06:35:00
12:55 AM,31.3,20.1,63,30.01,10.0,NNW,9.2,-,N/A,,Clear,330,2012-12-24 06:55:00
1:15 AM,32.0,20.7,63,30.00,10.0,North,9.2,-,N/A,,Clear,350,2012-12-24 07:15:00
1:35 AM,34.9,21.7,59,30.00,10.0,NNW,8.1,-,N/A,,Clear,340,2012-12-24 07:35:00
1:55 AM,34.0,21.4,60,30.01,10.0,NNW,5.8,-,N/A,,Clear,330,2012-12-24 07:55:00
2:15 AM,32.9,21.0,62,30.00,10.0,North,5.8,-,N/A,,Clear,360,2012-12-24 08:15:00
2:35 AM,32.5,21.2,63,30.00,10.0,NNE,8.1,-,N/A,,Clear,20,2012-12-24 08:35:00
2:55 AM,32.0,21.0,64,30.01,10.0,North,5.8,-,N/A,,Clear,360,2012-12-24 08:55:00
3:15 AM,31.8,21.4,65,30.01,10.0,North,6.9,-,N/A,,Clear,10,2012-12-24 09:15:00
3:35 AM,31.1,21.2,67,30.02,10.0,North,6.9,-,N/A,,Clear,350,2012-12-24 09:35:00
3:55 AM,31.3,21.2,66,30.02,10.0,NW,3.5,-,N/A,,Scattered Clouds,310,2012-12-24 09:55:00
4:15 AM,30.9,21.0,67,30.03,10.0,WNW,4.6,-,N/A,,Clear,300,2012-12-24 10:15:00
4:35 AM,31.5,21.2,66,30.03,10.0,NW,5.8,-,N/A,,Clear,320,2012-12-24 10:35:00
4:55 AM,31.3,21.0,66,30.03,10.0,NNW,4.6,-,N/A,,Clear,330,2012-12-24 10:55:00
5:15 AM,31.1,20.8,66,30.03,10.0,North,8.1,-,N/A,,Clear,360,2012-12-24 11:15:00
5:35 AM,31.5,21.0,65,30.02,10.0,North,6.9,-,N/A,,Clear,10,2012-12-24 11:35:00
5:55 AM,30.9,20.8,66,30.03,10.0,North,8.1,-,N/A,,Clear,350,2012-12-24 11:55:00
6:15 AM,30.6,20.7,67,30.04,10.0,NW,5.8,-,N/A,,Clear,320,2012-12-24 12:15:00
6:35 AM,29.1,19.9,69,30.04,10.0,NW,5.8,-,N/A,,Clear,320,2012-12-24 12:35:00
6:55 AM,27.9,19.6,71,30.05,10.0,West,6.9,-,N/A,,Clear,280,2012-12-24 12:55:00
7:15 AM,25.7,18.5,74,30.06,10.0,West,8.1,-,N/A,,Clear,280,2012-12-24 13:15:00
7:35 AM,25.5,18.9,76,30.06,10.0,WNW,8.1,-,N/A,,Clear,300,2012-12-24 13:35:00
7:55 AM,26.2,19.2,75,30.06,10.0,NW,6.9,-,N/A,,Clear,320,2012-12-24 13:55:00
8:15 AM,27.3,19.8,73,30.04,10.0,North,3.5,-,N/A,,Clear,350,2012-12-24 14:15:00
8:35 AM,29.5,21.0,71,30.03,10.0,NNE,4.6,-,N/A,,Clear,30,2012-12-24 14:35:00
8:55 AM,32.0,22.3,67,30.03,10.0,North,5.8,-,N/A,,Clear,10,2012-12-24 14:55:00
9:15 AM,33.8,22.6,64,30.05,10.0,NNE,8.1,-,N/A,,Clear,20,2012-12-24 15:15:00
9:35 AM,35.2,22.6,60,30.04,10.0,NNE,9.2,-,N/A,,Clear,20,2012-12-24 15:35:00
9:55 AM,36.0,22.6,58,30.04,10.0,NE,8.1,-,N/A,,Clear,50,2012-12-24 15:55:00
10:15 AM,37.4,22.5,55,30.03,10.0,ENE,8.1,-,N/A,,Clear,60,2012-12-24 16:15:00
10:35 AM,38.5,22.1,52,30.05,10.0,East,3.5,-,N/A,,Clear,80,2012-12-24 16:35:00
10:55 AM,39.0,21.7,50,30.04,10.0,Calm,Calm,-,N/A,,Clear,0,2012-12-24 16:55:00
11:15 AM,39.7,21.6,48,30.03,10.0,ESE,3.5,-,N/A,,Clear,110,2012-12-24 17:15:00
11:35 AM,40.6,20.8,45,30.02,10.0,SE,4.6,-,N/A,,Clear,130,2012-12-24 17:35:00
11:55 AM,41.5,20.7,43,30.01,10.0,Calm,Calm,-,N/A,,Clear,0,2012-12-24 17:55:00
12:15 PM,42.4,19.9,41,30.00,10.0,South,3.5,-,N/A,,Clear,180,2012-12-24 18:15:00
12:35 PM,42.8,19.4,39,29.99,10.0,Calm,Calm,-,N/A,,Clear,0,2012-12-24 18:35:00
12:55 PM,43.2,19.2,38,29.98,10.0,Calm,Calm,-,N/A,,Clear,0,2012-12-24 18:55:00
1:15 PM,43.3,18.9,38,29.96,10.0,Calm,Calm,-,N/A,,Clear,0,2012-12-24 19:15:00
1:35 PM,43.7,18.7,37,29.96,10.0,SSW,3.5,-,N/A,,Clear,200,2012-12-24 19:35:00
1:55 PM,43.9,18.5,36,29.95,10.0,Calm,Calm,-,N/A,,Clear,0,2012-12-24 19:55:00
2:15 PM,44.4,18.1,35,29.94,10.0,Calm,Calm,-,N/A,,Clear,0,2012-12-24 20:15:00
2:35 PM,45.0,18.1,34,29.92,10.0,Calm,Calm,-,N/A,,Clear,0,2012-12-24 20:35:00
2:55 PM,45.1,18.3,34,29.92,10.0,ENE,3.5,-,N/A,,Clear,60,2012-12-24 20:55:00
3:15 PM,45.5,18.7,34,29.90,10.0,Calm,Calm,-,N/A,,Clear,0,2012-12-24 21:15:00
3:35 PM,46.0,18.7,34,29.90,10.0,NE,3.5,-,N/A,,Clear,50,2012-12-24 21:35:00
3:55 PM,46.0,18.9,34,29.88,10.0,East,6.9,-,N/A,,Clear,80,2012-12-24 21:55:00
4:15 PM,46.2,18.9,34,29.88,10.0,East,9.2,-,N/A,,Clear,80,2012-12-24 22:15:00
4:35 PM,45.7,18.7,34,29.88,10.0,East,6.9,-,N/A,,Clear,80,2012-12-24 22:35:00
4:55 PM,45.3,18.7,35,29.87,10.0,East,6.9,-,N/A,,Clear,80,2012-12-24 22:55:00
5:15 PM,44.8,18.7,35,29.86,10.0,East,8.1,-,N/A,,Clear,90,2012-12-24 23:15:00
5:35 PM,-9999,-9999,N/A,29.85,10.0,East,8.1,-,N/A,,Unknown,90,2012-12-24 23:35:00
5:55 PM,43.5,19.2,38,29.85,10.0,East,8.1,-,N/A,,Clear,90,2012-12-24 23:55:00
6:15 PM,43.0,19.2,39,29.84,10.0,East,8.1,-,N/A,,Clear,90,2012-12-25 00:15:00
6:35 PM,42.3,19.6,40,29.86,10.0,ENE,6.9,-,N/A,,Clear,70,2012-12-25 00:35:00
6:55 PM,41.5,19.8,42,29.85,10.0,East,10.4,-,N/A,,Scattered Clouds,80,2012-12-25 00:55:00
7:15 PM,41.2,20.1,43,29.85,10.0,East,11.5,-,N/A,,Clear,100,2012-12-25 01:15:00
7:55 PM,40.3,20.3,45,29.85,10.0,East,11.5,-,N/A,,Scattered Clouds,100,2012-12-25 01:55:00
8:15 PM,40.1,20.3,45,29.86,10.0,East,8.1,-,N/A,,Scattered Clouds,80,2012-12-25 02:15:00
8:35 PM,39.7,20.5,46,29.86,10.0,East,9.2,-,N/A,,Overcast,80,2012-12-25 02:35:00
8:55 PM,39.4,21.2,48,29.87,10.0,ENE,8.1,-,N/A,,Overcast,70,2012-12-25 02:55:00
9:15 PM,39.2,21.0,48,29.85,10.0,ENE,11.5,-,N/A,,Overcast,70,2012-12-25 03:15:00
9:35 PM,39.4,21.0,48,29.85,10.0,ENE,11.5,-,N/A,,Overcast,60,2012-12-25 03:35:00
9:55 PM,39.4,20.8,47,29.86,10.0,ENE,9.2,-,N/A,,Overcast,60,2012-12-25 03:55:00
10:15 PM,39.2,20.7,47,29.80,10.0,East,19.6,-,N/A,,Overcast,80,2012-12-25 04:15:00
10:35 PM,39.2,20.8,48,29.85,10.0,NE,12.7,-,N/A,,Overcast,50,2012-12-25 04:35:00
10:55 PM,39.2,20.8,48,29.88,10.0,East,8.1,23.0,N/A,,Overcast,80,2012-12-25 04:55:00
11:15 PM,39.2,21.0,48,29.85,10.0,NE,12.7,-,N/A,,Overcast,50,2012-12-25 05:15:00
11:35 PM,38.8,21.6,50,29.82,10.0,ENE,16.1,-,N/A,,Overcast,60,2012-12-25 05:35:00
11:55 PM,38.5,23.2,54,29.83,10.0,ENE,15.0,-,N/A,,Mostly Cloudy,70,2012-12-25 05:55:00